Weather Service Report


649 
ASUS44 KJAN 061203
RWRMS 

MISSISSIPPI HOURLY WEATHER ROUNDUP
NATIONAL WEATHER SERVICE JACKSON MS
700 AM CDT FRI MAY 06 2016

NOTE: "FAIR: INDICATES FEW OR NO CLOUDS BELOW 12,000 FEET WITH NO
SIGNIFICANT WEATHER AND/OR OBSTRUCTIONS TO VISIBILITY.

MSZ001>002-007>008-010>013-018>021-025>028-034>036-061300-
NORTHWEST MISSISSIPPI
  
CITY           SKY/WX    TMP DP  RH WIND       PRES   REMARKS
BATESVILLE     FAIR      45  44  97 CALM      30.09R                  
CLEVELAND      FAIR      51  50  98 CALM      30.09R                  
GREENWOOD      CLEAR     48  45  89 CALM      30.07R                  
6HR MIN TEMP:  45; 6HR MAX TEMP:  54;                                

GREENVILLE     CLEAR     51  47  86 N3        30.09R                  
6HR MIN TEMP:  48; 6HR MAX TEMP:  56;                                

OLIVE BRANCH   SUNNY     48  48 100 CALM      30.09R                  
OXFORD         FAIR      43  41  93 CALM      30.10R                  
TUNICA         SUNNY     46  45  93 CALM      30.10R                  
WINONA         FAIR      45  45  99 MISG      30.07S                  
$$

MSZ003>006-009-014>017-022>024-029>033-037>039-061300-
NORTHEAST MISSISSIPPI
  
CITY           SKY/WX    TMP DP  RH WIND       PRES   REMARKS
COLUMBUS AFB   SUNNY     47  45  92 W2        30.06R                  
6HR MIN TEMP:  43; 6HR MAX TEMP:  52;                                

CORINTH        FAIR      46  45  93 CALM      30.07R                  
STARKVILLE     FAIR      46  43  87 CALM      30.06S                  
TUPELO         SUNNY     49  44  83 CALM      30.07R                  
6HR MIN TEMP:  46; 6HR MAX TEMP:  51;                                

$$

MSZ040-058-061300-
CENTRAL MISSISSIPPI
  
CITY           SKY/WX    TMP DP  RH WIND       PRES   REMARKS
JACKSON INTL   CLEAR     50  46  86 CALM      30.06R                  
6HR MIN TEMP:  46; 6HR MAX TEMP:  53;                                

JACKSON HAWKNS CLEAR     50  44  80 CALM      30.07R                  
6HR MIN TEMP:  48; 6HR MAX TEMP:  55;                                

MADISON        FAIR      45  43  93 CALM      30.07R                  
MERIDIAN KEY   SUNNY     48  44  86 CALM      30.06R                  
6HR MIN TEMP:  46; 6HR MAX TEMP:  52;                                

MERIDIAN NAS   SUNNY     46  42  86 CALM      30.06R                  
6HR MIN TEMP:  45; 6HR MAX TEMP:  52;                                

VICKSBURG TVR  CLEAR     56  47  71 E6        30.07R                  
6HR MIN TEMP:  53; 6HR MAX TEMP:  57;                                

VICKSBURG VKS  SUNNY     50  46  87 CALM      30.07R                  
$$

MSZ059>079-061300-
SOUTH MISSISSIPPI
  
CITY           SKY/WX    TMP DP  RH WIND       PRES   REMARKS
BROOKHAVEN     FAIR     N/A N/A N/A CALM      30.06R                  
COLUMBIA       FAIR      45  45 100 NE3       30.09R                  
HATTIESBURG    CLEAR     49  46  90 NW3       30.05R                  
6HR MIN TEMP:  46; 6HR MAX TEMP:  53;                                

LAUREL         FAIR      48  48 100 NW3       30.06R                  
MCCOMB         CLEAR     53  44  71 N6        30.05R                  
6HR MIN TEMP:  49; 6HR MAX TEMP:  56;                                

NATCHEZ        CLEAR     46  43  87 CALM      30.06R                  
6HR MIN TEMP:  46; 6HR MAX TEMP:  54;                                

PINE BELT      CLEAR     50  43  76 N7        30.05R                  
6HR MIN TEMP:  48; 6HR MAX TEMP:  55;                                

$$

MSZ080>082-061300-
COASTAL MISSISSIPPI
  
CITY           SKY/WX    TMP DP  RH WIND       PRES   REMARKS
BAY ST LOUIS   CLEAR     48  45  87 CALM      30.04                   
BILOXI         SUNNY     56  45  68 VRB7      30.02R                  
6HR MIN TEMP:  55; 6HR MAX TEMP:  64;                                

PASCAGOULA     SUNNY     52  48  86 N5        30.03R                  
6HR MIN TEMP:  47; 6HR MAX TEMP:  59;                                

GULFPORT       CLEAR     54  45  71 N6        30.02R                  
6HR MIN TEMP:  50; 6HR MAX TEMP:  60;                                

$$
  

Return to Home page


Western Regional Climate Center, wrcc@dri.edu